www.pogodaiklimat.ru

Погода и климат >> Архив погоды >> Канада >> Cambridge Bay Arpt


ПОГОДА в Cambridge Bay Arpt

  • Прогноз погоды в Cambridge Bay Arpt
  • Монитор погоды в Cambridge Bay Arpt
  • Климат города

АРХИВ ПОГОДЫ в Cambridge Bay Arpt

Время (UTC), дата Ветер
(напр.,м/с)
 
Видим.   Явления Облачность Т
(С)
Тd
(С)
f
(%)
Тe
(С)
Тes
(С)
Комфортность P
(гПа)
Po
(гПа)
Тmin
(С)
Tmax
(С)
R
(мм)
R24
(мм)
S
(см)
03 12.01 СЗ 11 4800 м 10/10 300 м
[]
-20.4 -23.1 79 -35 -35 опасность
обморожения
1012.8 1008.5
06 12.01 2000 м слабый снег н/о -24.0 -27.0 76 -39 -39 опасность
обморожения
1012.5 1008.2 -30.3 -20.2 0.0 141
09 12.01 СЗ 10 4000 м 4/4 600 м
[]
-22.3 -25.0 79 -37 -37 опасность
обморожения
1012.7 1008.4
12 12.01 СЗ 8 4800 м метель {снег} 4/4 600 м
[Sc]
-23.5 -26.3 78 -37 -37 опасность
обморожения
1012.0 1007.7 -24.6 -20.2 0.0 23
15 12.01 СЗ 11 6000 м 3/3 600 м
[]
-22.0 -24.9 77 -37 -37 опасность
обморожения
1011.3 1007.0
18 12.01 СЗ 11 4000 м метель 6/4 600 м
[Sc Ac As]
-23.6 -26.5 77 -39 -39 опасность
обморожения
1011.6 1007.3 -26.4 -21.5 23
21 12.01 СЗ 11 1200 м 4/4 1000 м
[]
-20.9 -23.5 80 -35 -35 опасность
обморожения
1010.5 1006.2
00 13.01 СЗ 10 4800 м метель 6/3 600 м
[Sc Ac trans]
-21.9 -24.8 77 -36 -36 опасность
обморожения
1010.4 1006.1 -24.6 -20.4 23
03 13.01 З 8 9000 м 1/1 600 м
[]
-25.3 -28.3 76 -39 -39 опасность
обморожения
1009.5 1005.2
06 13.01 З 6 16 км позёмок 4/4 600 м
[Sc]
-26.1 -29.1 76 -39 -39 опасность
обморожения
1008.4 1004.1 -26.7 -20.4 71
09 13.01 СЗ 7 19 км 3/3 600 м
[]
-25.6 -28.6 76 -39 -39 опасность
обморожения
1008.3 1004.0
12 13.01 СЗ 7 19 км позёмок 3/1 600 м
[Sc Ac As]
-27.1 -30.3 74 -41 -41 опасность
обморожения
1008.5 1004.2 -27.6 -20.4 23
15 13.01 СЗ 6 12 км 10/10 600 м
[]
-24.3 -27.4 75 -36 -36 опасность
обморожения
1009.7 1005.4
18 13.01 <100 м сильная метель {снег} н/о -23.1 -25.9 78 -38 -38 опасность
обморожения
1011.2 1006.9 -27.9 -22.6 0.0 23
21 13.01 СЗ 9 <100 м 3/3 600 м
[]
-23.8 -26.6 78 -38 -38 опасность
обморожения
1014.0 1009.7
00 14.01 С 10 800 м метель {снег} 4/4 1000 м
[Sc]
-23.0 -25.9 77 -37 -37 опасность
обморожения
1016.2 1011.9 -27.9 -22.4 0.0 23
03 14.01 С 6 9000 м 4/4 1000 м
[]
-27.4 -30.8 73 -40 -40 опасность
обморожения
1019.3 1015.0
06 14.01 СЗ 5 12 км ледяные иглы {снег} 3/3 1000 м
[Sc]
-27.8 -31.1 73 -39 -39 опасность
обморожения
1022.6 1018.3 -28.8 -22.4 0.0 181
09 14.01 СЗ 8 9000 м 1/1 1000 м
[]
-26.7 -29.9 74 -41 -41 опасность
обморожения
1026.4 1022.1
12 14.01 СЗ 6 14 км ледяные иглы {снег} ясно -26.6 -29.9 74 -39 -39 опасность
обморожения
1029.4 1025.0 -28.8 -22.4 0.0 23
15 14.01 З 8 11 км 1/1 300 м
[]
-26.2 -29.3 75 -40 -40 опасность
обморожения
1031.4 1027.0
18 14.01 З 5 16 км ледяные иглы {снег} 3/1 300 м
[Sc Ac As]
-25.7 -28.9 74 -37 -37 опасность
обморожения
1031.7 1027.3 -28.8 -24.6 0.0 23
21 14.01 З 6 16 км 3/3 300 м
[]
-26.5 -29.8 74 -39 -39 опасность
обморожения
1033.4 1029.0
00 15.01 СЗ 4 16 км ледяные иглы {снег} 5/0
[Ci fib]
-25.6 -28.8 74 -36 -36 опасность
обморожения
1032.7 1028.3 -28.1 -24.7 0.0 23
03 15.01 З 3 16 км 8/0
[]
-24.5 -27.4 77 -32 -32 опасность
обморожения
1031.0 1026.6
06 15.01 ЮВ 4 17 км ледяные иглы {снег} 9/0
[Ac As Ci fib]
-22.8 -25.7 77 -32 -32 опасность
обморожения
1027.5 1023.2 -28.1 -22.8 0.0 131
09 15.01 ЮВ 7 17 км 9/0
[]
-19.6 -22.7 76 -31 -31 опасность
обморожения
1023.1 1018.8
12 15.01 ЮВ 10 4000 м слабый снег 9/5 1000 м
[Sc Ac As]
-18.6 -20.9 82 -32 -32 опасность
обморожения
1017.4 1013.1 -25.9 -22.8 0.0 23
15 15.01 ЮВ 9 2000 м 9/9 1000 м
[]
-15.9 -17.9 85 -28 -28 1012.4 1008.1
18 15.01 ЮВ 6 8000 м позёмок {снег} 9/9 1000 м
[Sc]
-14.7 -16.8 84 -24 -24 1009.5 1005.3 -26.9 -14.4 2 25
21 15.01 В 5 19 км 9/9 1000 м
[]
-15.8 -17.9 84 -25 -25 1008.8 1004.6
00 16.01 В 3 19 км ледяные иглы 4/3 1500 м
[Sc Ac trans]
-18.7 -20.9 83 -25 -25 1009.3 1005.1 -22.9 -14.4 0.0 21
03 16.01 В 4 19 км 8/8 1500 м
[]
-18.3 -20.5 83 -27 -27 1008.3 1004.1
06 16.01 СВ 4 20 км ледяные иглы {снег} 8/5 600 м
[Sc Ac As]
-17.9 -20.2 82 -26 -26 1009.1 1004.9 -22.9 -14.4 0.0 151
09 16.01 В 6 19 км 3/3 600 м
[]
-18.7 -21.0 82 -29 -29 1008.9 1004.7
12 16.01 СВ 4 19 км ледяные иглы {снег} 4/4 300 м
[Sc]
-21.6 -24.1 80 -31 -31 опасность
обморожения
1011.0 1006.7 -21.6 -14.4 0.0 21
15 16.01 СВ 4 19 км 1/1 300 м
[]
-23.7 -26.2 80 -34 -34 опасность
обморожения
1012.3 1008.0
18 16.01 В 4 19 км ледяные иглы {снег} 4/1 300 м
[Sc Ac trans Ci fib]
-24.2 -26.7 80 -34 -34 опасность
обморожения
1014.3 1010.0 -24.9 -17.9 0.0 21
21 16.01 СВ 3 24 км 8/0
[]
-26.4 -29.2 77 -35 -35 опасность
обморожения
1015.5 1011.2
00 17.01 СВ 2 16 км ледяные иглы {снег} 1/1 600 м
[Sc Ac trans]
-26.4 -29.2 77 -33 -33 опасность
обморожения
1016.8 1012.5 -27.7 -21.8 0.0 23
03 17.01 СВ 3 19 км 3/3 600 м
[]
-27.5 -30.1 78 -37 -37 опасность
обморожения
1017.2 1012.9
06 17.01 В 3 16 км слабый снег {туман} 10/10 100 м
[Sc]
-24.1 -26.8 78 -32 -32 опасность
обморожения
1017.0 1012.7 -27.8 -17.9 0.0 9
09 17.01 В 3 19 км 9/9 100 м
[]
-21.9 -24.4 80 -29 -29 1017.4 1013.1
12 17.01 В 3 19 км слабый снег 10/10 100 м
[Sc]
-20.8 -23.2 81 -28 -28 1017.4 1013.1 -27.8 -17.9 0.0 21
15 17.01 В 4 19 км 9/9 100 м
[]
-21.2 -23.6 81 -31 -31 опасность
обморожения
1016.7 1012.4
18 17.01 В 3 24 км в посл. час снег 6/3 200 м
[Sc Ac As]
-23.2 -25.8 79 -31 -31 опасность
обморожения
1016.9 1012.6 -27.8 -20.6 0.0 21
21 17.01 В 4 24 км 9/9 200 м
[]
-22.9 -25.5 79 -33 -33 опасность
обморожения
1016.7 1012.4
00 18.01 СВ 4 19 км ледяные иглы 5/4 200 м
[Sc Ac trans]
-24.1 -26.8 78 -33 -33 опасность
обморожения
1017.3 1013.0 -25.5 -20.6 0.0 21
03 18.01 СВ 3 19 км 9/9 200 м
[]
-23.8 -26.4 79 -31 -31 опасность
обморожения
1016.4 1012.1
06 18.01 СВ 3 19 км ледяные иглы {снег} 3/3 200 м
[Sc]
-27.3 -30.2 76 -37 -37 опасность
обморожения
1016.1 1011.8 -27.3 -20.6 0.0 21
09 18.01 СВ 5 22 км 1/1 200 м
[]
-30.0 -33.1 74 -43 -43 опасность
обморожения
1015.8 1011.5
12 18.01 С 3 24 км ледяные иглы {снег} 1/1 100 м
[Frnb]
-30.5 -33.6 74 -40 -40 опасность
обморожения
1015.6 1011.3 -31.6 -20.6 0.0 21
15 18.01 СВ 5 24 км 1/1 100 м
[]
-32.9 -36.3 71 -46 -46 опасность
обморожения
1015.1 1010.8
18 18.01 СВ 3 24 км ледяные иглы {снег} 5/4 50 м
[St]
-33.2 -36.5 72 -44 -44 опасность
обморожения
1015.5 1011.1 -34.0 -25.9 0.0 21
21 18.01 СВ 5 19 км 9/9 50 м
[]
-33.5 -37.0 71 -47 -47 опасность
обморожения
1015.0 1010.6
00 19.01 СВ 4 9000 м ледяные иглы {снег} 4/4 50 м
[St]
-34.0 -37.4 71 -46 -46 опасность
обморожения
1015.5 1011.1 -34.1 -30.5 0.0 21

 

Местоположение метеостанции Cambridge Bay Arpt (Канада): широта 69.10 долгота -105.10 высота над уровнем моря 27 м.

В архиве по умолчанию представлена погода в Cambridge Bay Arpt за последнюю неделю. Архивные данные за месяц целиком и за предыдущие месяцы, начиная с января 2011 года, Вы можете получить, выбрав интересующий диапазон дат из раскрывающегося списка и нажав кнопку "Ввод!".

Внимание! Время в таблицах - всемирное. Для получения местного времени необходимо прибавить поправку, которая в Cambridge Bay Arpt равна -7 ч.

Смотрите также архив погоды в соседних городах и на ближайших метеорологических станциях:

Погода в Cape Peel West (Канада) (108 км)
Погода в Hat Island (Канада) (223 км)
Погода в Gjoa Haven Climate (Канада) (374 км)
Погода в Kugluktuk (Канада) (432 км)
Погода в Kugluktuk Airport (Канада) (432 км)
Погода в Lupin (Канада) (452 км)
Погода в Lupin (maps) (Канада) (452 км)
Погода в Spence bay (Канада) (454 км)
Погода в Robertson Lake (Канада) (460 км)
Погода в Shepherd Bay (Канада) (466 км)

Пояснения к столбцам:

Ветер - указаны скорость ветра в м/с - средняя за 10 мин, порывы в срок и между сроками (в фигурных скобках) и направление, откуда дует ветер: С - северный, СВ - северо-восточный, В - восточный, ЮВ - юго-восточный, Ю - южный, ЮЗ - юго-западный, З - западный, СЗ - северо-западный.
Видимость - горизонтальная дальность видимости в метрах или километрах. При видимости от 1 до 10 км при отсутствии осадков обычно наблюдается дымка, при ухудшении видимости до 1 км и менее - туман. В сухую погоду видимость может ухудшаться дымом, пылью или мглою.
Явления - указаны атмосферные явления, наблюдавшиеся в срок или в последний час перед сроком; фигурными скобками обозначены явления, наблюдавшиеся между сроками (за 1-3 часа до срока); квадратными скобками обозначены град или гололедные отложения с указанием их диаметра в мм.
Облачность - указаны через наклонную черту общая и нижняя облачность в баллах и высота нижней границы облаков в метрах; квадратными скобками обозначены формы облаков: Ci - перистые, Cs - перисто-слоистые, Cc - перисто-кучевые, Ac - высококучевые, As - высокослоистые, Sc - слоисто-кучевые, Ns - слоисто-дождевые, Cu - кучевые, Cb - кучево-дождевые. Подробнее классификацию облаков см. в Атласе облаков (PDF).
T - Температура воздуха - температура, измеренная на высоте 2 м над землей.
Td - Температура точки росы - температура, при понижении до которой содержащийся в воздухе водяной пар достигнет насыщения.
f - Относительная влажность воздуха - влажноcть воздуха, измеренная на высоте 2 м над землей.
Te - Эффективная температура - температура, которую ощущает одетый по сезону человек в тени. Характеристика душности погоды. При расчете учитывается влияние влажности воздуха и скорости ветра на теплоощущения человека.
Tes - Эффективная температура на солнце - температура, которую ощущает человек, с поправкой на солнечный нагрев. Характеристика знойности погоды. Зависит от высоты солнца над горизонтом, облачности и скорости ветра. Ночью, в пасмурную погоду, а также при ветре 12 м/с и более поправка равна нулю.
P - Атмосферное давление - приведенное к уровню моря атмосферное давление.
Po - Атмосферное давление - измеренное на уровне метеостанции атмосферное давление.
Tmin - Минимальная температура - минимум температуры воздуха на высоте 2 м над землей.
Tmax - Максимальная температура - максимум температуры воздуха на высоте 2 м над землей.
R - Количество осадков - Количество выпавших осадков за период времени, мм. При наведении курсора мыши на число - период времени, за который выпало указанное количество осадков.
R24 - Количество осадков - Количество выпавших осадков за 24 часа, мм.
S - Снежный покров - Высота снежного покрова, см. При наведении курсора мыши на число - состояние снежного покрова и степень покрытия местности в баллах.